Regional Weather Roundup
Issued by NWS Huntsville, AL

Home | Current Version | Previous Version | Text Only | Print | Product List | Glossary On
Versions: 1 2 3 4 5 6 7 8 9 10 11 12 13 14 15 16 17 18 19 20 21 22 23 24 25 26 27 28 29 30 31 32 33 34 35 36 37 38 39 40 41 42 43 44 45 46 47 48 49 50
000
ASUS44 KHUN 060210
RWRHUN

WEATHER ROUNDUP FOR THE TENNESSEE VALLEY
NATIONAL WEATHER SERVICE HUNTSVILLE AL
900 PM CDT SUN JUL 05 2015

ALZ001>004-060300-
NORTHWEST ALABAMA

CITY           SKY/WX    TMP DP  RH WIND       PRES   REMARKS
COURTLAND HCN    N/A     76  32  20 W3          N/A
BANKHEAD NF      N/A     72  71  95 CALM        N/A
RUSSELLVILLE     N/A     72 N/A N/A MISG        N/A
SHOALS AIRPORT MOCLDY    76  70  82 SW3       30.10R
SHOALS TVA RES   N/A     75 N/A N/A MISG        N/A
$$

ALZ005>007-016-060300-
NORTH CENTRAL ALABAMA

CITY           SKY/WX    TMP DP  RH WIND       PRES   REMARKS
DECATUR AP     MOCLDY    75  71  87 SW3       30.10R
HUNTSVILLE AP  MOCLDY    77  71  82 SW3       30.09R
HUN NWS/UAH      N/A     77  68  75 S1          N/A
MERIDIANVILLE  MOCLDY    72  68  88 CALM      30.10R
REDSTONE ARSN  MOCLDY    76  71  83 S2        30.09R
VINEMONT AP    MOCLDY    71  70  97 CALM      30.14R
$$

ALZ008>010-060300-
NORTHEAST ALABAMA

CITY           SKY/WX    TMP DP  RH WIND       PRES   REMARKS
ALBERTVILLE    MOCLDY    73  72  94 CALM      30.12R
FORT PAYNE     PTCLDY    70  66  88 CALM      30.12R
SCOTTSBORO AP  PTCLDY    73  72  94 CALM      30.11R
SCOTTSBORO HCN   N/A     72 N/A N/A MISG        N/A
VALLEY HEAD      N/A     70 N/A N/A MISG        N/A
$$

TNZ076-096-097-060300-
SOUTHEASTERN MIDDLE TENNESSEE

CITY           SKY/WX    TMP DP  RH WIND       PRES   REMARKS
TULLAHOMA      CLEAR     72  66  83 CALM      30.12R
WINCHESTER     CLEAR     72  70  94 S3        30.12R
$$

...SURROUNDING SITES...

CITY           SKY/WX    TMP DP  RH WIND       PRES   REMARKS
ATLANTA        MOCLDY    76  67  73 SW5       30.13R
ANNISTON       CLOUDY    77  70  79 W3        30.12R
BIRMINGHAM     CLOUDY    78  71  79 W7        30.13R
CHATTANOOGA    MOCLDY    77  67  71 SW5       30.11R
CORINTH        FAIR      75  70  83 S5        30.07S
DALTON         PTCLDY    72  72 100 CALM      30.12R
GADSDEN        CLOUDY    84  70  61 CALM      30.10R
GOLDEN TRNGL   MOCLDY    77  68  73 CALM      30.10R
HALEYVILLE     MOCLDY    73  72  94 CALM      30.14R
JACKSON TN     CLEAR     75  70  84 S5        30.06R
MEMPHIS        PTCLDY    77  71  82 SW6       30.07R
NASHVILLE      PTCLDY    77  70  79 CALM      30.07R
ROME           PTCLDY    73  70  90 CALM      30.10R
SAVANNAH       CLEAR     73  32  21 CALM      30.08S
TUPELO         MOCLDY    75  71  87 SW6       30.07F
TUSCALOOSA     CLOUDY    73  70  90 S8        30.11R
$$

...GULF COAST WEATHER...

CITY           SKY/WX    TMP DP  RH WIND       PRES   REMARKS
GULFPORT       LGT RAIN  71  66  84 SW6       30.11F
PASCAGOULA     CLOUDY    71  68  90 VRB3      30.11F
MOBILE         CLOUDY    69  68  96 W6        30.14F
GULF SHORES    CLOUDY    73  70  89 W8        30.14R
PENSACOLA      CLOUDY    73  67  81 NW6       30.12R
DESTIN         MOCLDY    79  72  79 CALM      30.14R
PANAMA CITY    PTCLDY    74  71  91 SW5       30.14R
APPALACHICOLA  CLEAR     78  72  81 CALM      30.14R
$$



USA.gov is the U.S. government's official web portal to all federal, state and local government web resources and services.